COSMOS 2251 DEB, 37101

Orbit data source: Space-Track

COSMOS 2251 DEB, 37101 is space debris in LEO originally from a launch on Wed, 16 Jun 1993 UTC launched from the Plesetsk Missile And Space Complex (PKMTR). The debris from Iridium 33, an American commercial communications satellite, has been tracked extensively since its accidental collision with the defunct Russian satellite Cosmos 2251 in 2009. This event, occurring at high speed in low Earth orbit (LEO), generated thousands of pieces of space debris, significantly increasing the risk of further collisions. The Iridium 33 debris cloud has impacted space traffic management and orbital debris mitigation strategies, making it a subject of ongoing study in space situational awareness.

Loading next visibility...
Identifier
37101, 1993-036BFX
Orbit
LEO
Country
Flag of CISCIS
Related business
Manufacturer
Unknown
Mission
Spacecraft
Bus & Motor
Unknown
Mass
Unknown
Launch date (UTC)
1993-06-16 (33 years ago)
Launch vehicle
Unknown
Launch site
Plesetsk Missile And Space Complex (PKMTR)
Object type
Payload
Rocket body
Debris
Shape & HBR
Unknown shape, 0.1 m
Radar Cross Section
Small (<0.1 m²)

Expand to show TLE details & history
Last TLE update: 1 day ago

TLE from 1 day ago
0 COSMOS 2251 DEB
1 37101U 93036BFX 26119.52784439  .00004319  00000-0  76763-3 0  9993
2 37101  74.0311 188.2956 0044157 241.0925 118.5811 14.66840864676914
Epoch: 2026-04-29T12:40Z
TLE epoch observation values (Epoch: 2026-04-29T12:40:05.755Z)
Latitude
-0.00007°
Longitude
140.78408°
Altitude
688.819 km
Speed
7.504 km/s
True Right ascension
12h 33m 10s
True Declination
0° 00' 00"
Sunlit
Object was in full shadow at epoch
Visualization orbit readout
Latitude
Unknown
Longitude
Unknown
Altitude
Unknown
Speed
Unknown
Apparent Right ascension
Unknown
Apparent Declination
Unknown
Sunlit
N/A
Visualization observer readout
Local Sidereal Time
22:11:32
Azimuth
Unknown
Elevation
Unknown
Doppler factor
Unknown
Orbital elements
Apogee altitude
699.879 km
Perigee altitude
637.645 km
Semi-major axis
7,046.899 km
Eccentricity
0.00442
Inclination
74.0311°
RAAN
188.2956°
Arg. of periapsis
241.0925°
True anomaly
119.02427°
Mean anomaly
118.5811°
Eccentric anomaly
118.8028°
Mean motion
3.66899 °/min
Orbital period
98.12 mins
BSTAR
0.00076763
Loading maneuver chart data...
Computing Atmospheric mass density...

Documentation

Showing up to 5 results
|